Flag for Hong Kong Weather past 2 weeks in Kowloon, Hong Kong

Now
54 °F

Light rain. Passing clouds.


Feels Like: 52 °F
Forecast: 55 / 67 °F
Wind: 6 mph from East

Location: National Airport

Current Time: Dec 19, 2014 at 11:25:52 PM

Latest Report: Dec 19, 2014 at 11:00 PM


Visibility: N/A

Pressure: 30.24 "Hg

Humidity: 77%

Dew point: 46 °F

Location of KowloonLocation

Historic Weather in Kowloon — Graph

°F

Kowloon temperature yesterday

Maximum temperature yesterday: 61 °F (at 2:00 PM)
Minimum temperature yesterday: 54 °F (at 3:00 AM)
Average temperature yesterday: 57 °F

Past Weeks' High & Low Weather Summary

 TemperatureHumidityPressure
High73 °F (Dec 9, 12:00 PM)94% (Dec 19, 9:30 AM)30.42 "Hg (Dec 19, 9:30 AM)
Low52 °F (Dec 13, 5:30 AM)11% (Dec 17, 12:30 PM)30.04 "Hg (Dec 10, 2:00 PM)
Average63 °F52%30.20 "Hg
* Reported Dec 4 10:00 PM — Dec 19 10:30 PM, Kowloon, Weather by CustomWeather, © 2014

Note: Actual official high and low records may vary slightly from our data, if they occured in-between our weather recording intervals... More about our weather records

Advertising

Kowloon weather history for previous 24 hours

 ConditionsComfort  
Time TempWeatherWind HumidityBarometerVisibility
10:30 PM
Dec 19
54 °FLight rain. Passing clouds.7 mph77%30.24 "HgN/A
10:00 PM54 °FLight rain. Passing clouds.10 mph77%30.24 "Hg6 mi
9:30 PM54 °FLight rain. Passing clouds.5 mph82%30.24 "Hg4 mi
9:00 PM54 °FLight rain. Passing clouds.7 mph77%30.27 "HgN/A
8:30 PM52 °FLight rain. Passing clouds.6 mph88%30.24 "Hg5 mi
8:00 PM52 °FLight rain. Passing clouds.6 mph88%30.24 "Hg4 mi
7:30 PM54 °FLight rain. Passing clouds.8 mph82%30.21 "Hg4 mi
7:00 PM55 °FLight rain. Passing clouds.9 mph77%30.21 "Hg6 mi
6:30 PM55 °FLight rain. Passing clouds.7 mph72%30.21 "Hg6 mi
6:00 PM55 °FPassing clouds.9 mph77%30.21 "Hg6 mi
5:30 PM55 °FScattered clouds.8 mph72%30.21 "HgN/A
5:00 PM55 °FScattered clouds.10 mph72%30.21 "Hg6 mi
4:30 PM55 °FScattered clouds.9 mph72%30.21 "Hg6 mi
4:00 PM55 °FScattered clouds.13 mph77%30.21 "Hg5 mi
3:30 PM55 °FScattered clouds.12 mph82%30.21 "Hg4 mi
3:00 PM57 °FScattered clouds.9 mph77%30.21 "Hg4 mi
2:30 PM55 °FScattered clouds.12 mph82%30.21 "Hg4 mi
2:00 PM55 °FScattered clouds.8 mph82%30.24 "Hg3 mi
1:30 PM55 °FLight rain. Scattered clouds.9 mph82%30.24 "Hg3 mi
1:00 PM54 °FLight rain. Fog.7 mph88%30.27 "Hg2 mi
12:30 PM54 °FLight rain. Fog.8 mph88%30.27 "Hg2 mi
12:00 PM54 °FLight rain. Scattered clouds.7 mph82%30.30 "Hg4 mi
11:30 AM54 °FLight rain. Fog.10 mph88%30.30 "Hg2 mi
11:00 AM54 °FLight rain. Fog.12 mph88%30.33 "Hg2 mi
10:30 AM52 °FLight rain. Fog.16 mph94%30.33 "Hg2 mi
10:00 AM54 °FLight rain. Fog.13 mph88%30.33 "Hg2 mi
9:30 AM52 °FLight rain. Fog.15 mph94%30.30 "Hg2 mi
9:00 AM54 °FLight rain. Fog.14 mph88%30.30 "Hg2 mi
8:30 AM54 °FLight rain. Scattered clouds.12 mph82%30.30 "Hg3 mi
8:00 AM54 °FLight rain. Scattered clouds.13 mph82%30.27 "Hg4 mi
7:30 AM54 °FLight rain. Scattered clouds.12 mph88%30.27 "Hg3 mi
7:00 AM54 °FLight rain. Scattered clouds.12 mph82%30.27 "Hg3 mi
6:30 AM54 °FLight rain. Passing clouds.6 mph82%30.27 "Hg4 mi
6:00 AM54 °FLight rain. Passing clouds.9 mph82%30.27 "Hg4 mi
5:30 AM54 °FRain. Passing clouds.7 mph82%30.27 "Hg4 mi
5:00 AM54 °FLight rain. Passing clouds.8 mph77%30.24 "Hg4 mi
4:30 AM55 °FLight rain. Passing clouds.10 mph77%30.24 "Hg5 mi
4:00 AM55 °FLight rain. Passing clouds.9 mph72%30.24 "Hg5 mi
3:30 AM57 °FLight rain. Passing clouds.5 mph67%30.24 "Hg5 mi
3:00 AM59 °FPassing clouds.6 mph59%30.24 "HgN/A
2:30 AM57 °FPassing clouds.7 mph59%30.24 "HgN/A
2:00 AM57 °FPassing clouds.6 mph63%30.24 "HgN/A
1:30 AM57 °FLight rain. Passing clouds.8 mph59%30.27 "HgN/A
1:00 AM57 °FPassing clouds.3 mph59%30.27 "HgN/A
12:30 AM57 °FLight rain. Passing clouds.5 mph63%30.27 "HgN/A
12:00 AM57 °FLight rain. Passing clouds.5 mph59%30.30 "HgN/A
11:00 PM
Dec 18
59 °FLight rain. Passing clouds.7 mph51%30.33 "HgN/A
Weather by CustomWeather, © 2014

See weather overviewHow to use our weather pages